This demonstration page uses our WeatherBlox Daily Observations layout. Learn more.

Left ArrowRight Arrow

Hourly Observations for August 3, 2016

Temp ( °F °C ) Dew Point ( °F °C ) Humidity (%) Winds ( mph kmh ) Pressure ( in mb ) Visibility ( mi km ) Precip ( " mm )
12:18 am 00:18 Clear 68 20 66 19 94 94 Calm 30.09 1019 10 16.0934 N/A
12:38 am 00:38 Clear 68 20 66 19 94 94 Calm 30.09 1019 10 16.0934 N/A
12:58 am 00:58 Partly Cloudy 68 20 66 19 94 94 SW 3 6 30.09 1019 10 16.0934 N/A
1:19 am 01:19 Partly Cloudy 68 20 66 19 94 94 Calm 30.09 1019 10 16.0934 N/A
1:38 am 01:38 Clear 68 20 64 18 88 88 Calm 30.09 1019 10 16.0934 N/A
1:58 am 01:58 Clear 66 19 64 18 94 94 Calm 30.06 1018 10 16.0934 N/A
2:19 am 02:19 Clear 66 19 64 18 94 94 Calm 30.06 1018 10 16.0934 N/A
2:38 am 02:38 Clear 66 19 64 18 94 94 Calm 30.06 1018 10 16.0934 N/A
2:58 am 02:58 Clear 64 18 64 18 100 100 Calm 30.06 1018 10 16.0934 N/A
3:18 am 03:18 Clear 66 19 64 18 94 94 N 3 6 30.06 1018 10 16.0934 N/A
3:38 am 03:38 Clear 64 18 63 17 94 94 Calm 30.06 1018 10 16.0934 N/A
3:58 am 03:58 Clear 64 18 63 17 94 94 Calm 30.06 1018 10 16.0934 N/A
4:18 am 04:18 Clear 64 18 64 18 100 100 Calm 30.06 1018 10 16.0934 N/A
4:38 am 04:38 Clear 64 18 63 17 94 94 N 3 6 30.06 1018 10 16.0934 N/A
4:58 am 04:58 Clear 64 18 63 17 94 94 Calm 30.06 1018 10 16.0934 N/A
5:18 am 05:18 Clear 64 18 63 17 94 94 Calm 30.06 1018 10 16.0934 N/A
5:38 am 05:38 Clear 63 17 63 17 100 100 Calm 30.06 1018 10 16.0934 N/A
5:58 am 05:58 Clear 64 18 63 17 94 94 Calm 30.06 1018 10 16.0934 N/A
6:18 am 06:18 Clear 63 17 63 17 100 100 Calm 30.06 1018 10 16.0934 N/A
6:38 am 06:38 Clear 64 18 63 17 94 94 Calm 30.06 1018 10 16.0934 N/A
6:58 am 06:58 Sunny 63 17 61 16 94 94 Calm 30.06 1018 10 16.0934 N/A
7:18 am 07:18 Sunny 64 18 63 17 94 94 N 3 6 30.06 1018 10 16.0934 N/A
7:38 am 07:38 Sunny 66 19 64 18 94 94 Calm 30.06 1018 10 16.0934 N/A
7:59 am 07:59 Sunny 68 20 64 18 88 88 NE 3 6 30.06 1018 10 16.0934 N/A
8:18 am 08:18 Sunny 70 21 66 19 88 88 Calm 30.06 1018 10 16.0934 N/A
8:38 am 08:38 Sunny 72 22 66 19 83 83 Calm 30.03 1017 10 16.0934 N/A
8:59 am 08:59 Sunny 73 23 66 19 78 78 Calm 30.06 1018 10 16.0934 N/A
9:18 am 09:18 Sunny 75 24 66 19 74 74 Calm 30.06 1018 10 16.0934 N/A
9:38 am 09:38 Sunny 77 25 68 20 74 74 NE 3 6 30.06 1018 10 16.0934 N/A
9:59 am 09:59 Sunny 79 26 70 21 74 74 Calm 30.06 1018 10 16.0934 N/A
10:18 am 10:18 Sunny 79 26 68 20 70 70 Calm 30.06 1018 10 16.0934 N/A
10:38 am 10:38 Sunny 81 27 68 20 66 66 Calm 30.06 1018 10 16.0934 N/A
10:59 am 10:59 Sunny 81 27 68 20 66 66 E 3 6 30.06 1018 10 16.0934 N/A
11:18 am 11:18 Sunny 82 28 66 19 58 58 Calm 30.06 1018 10 16.0934 N/A
11:38 am 11:38 Sunny 82 28 66 19 58 58 ESE 6 9 30.06 1018 10 16.0934 N/A
11:59 am 11:59 Sunny 84 29 66 19 55 55 Calm 30.06 1018 10 16.0934 N/A
12:18 pm 12:18 Sunny 84 29 68 20 58 58 ESE 3 6 30.06 1018 10 16.0934 N/A
12:38 pm 12:38 Sunny 84 29 68 20 58 58 ESE 3 6 30.06 1018 10 16.0934 N/A
12:59 pm 12:59 Sunny 84 29 68 20 58 58 E 5 7 30.03 1017 10 16.0934 N/A
1:18 pm 13:18 Sunny 86 30 66 19 52 52 Calm 30.03 1017 10 16.0934 N/A
1:38 pm 13:38 Sunny 86 30 68 20 55 55 Calm 30.03 1017 10 16.0934 N/A
1:58 pm 13:58 Sunny 86 30 66 19 52 52 NE 3 6 30.03 1017 10 16.0934 N/A
2:18 pm 14:18 Sunny 88 31 68 20 52 52 NE 5 7 30.03 1017 10 16.0934 N/A
2:38 pm 14:38 Sunny 86 30 66 19 52 52 NE 3 6 30.03 1017 10 16.0934 N/A
2:59 pm 14:59 Partly Cloudy 88 31 66 19 49 49 Calm 29.97 1015 10 16.0934 N/A
3:18 pm 15:18 Partly Cloudy 86 30 68 20 55 55 Calm 30 1016 10 16.0934 N/A
3:38 pm 15:38 Mostly Cloudy 88 31 68 20 52 52 SE 5 7 29.97 1015 10 16.0934 N/A
3:58 pm 15:58 Partly Cloudy 88 31 68 20 52 52 E 5 7 29.97 1015 10 16.0934 N/A
4:18 pm 16:18 Sunny 88 31 66 19 49 49 Calm 29.97 1015 10 16.0934 N/A
4:38 pm 16:38 Sunny 88 31 66 19 49 49 NNE 3 6 29.97 1015 10 16.0934 N/A
4:58 pm 16:58 Sunny 88 31 66 19 49 49 Calm 29.97 1015 10 16.0934 N/A
5:18 pm 17:18 Sunny 88 31 66 19 49 49 NE 3 6 29.97 1015 10 16.0934 N/A
5:38 pm 17:38 Sunny 88 31 68 20 52 52 ENE 3 6 29.97 1015 10 16.0934 N/A
5:58 pm 17:58 Sunny 86 30 68 20 55 55 Calm 30 1016 10 16.0934 N/A
6:18 pm 18:18 Sunny 86 30 68 20 55 55 ENE 5 7 30 1016 10 16.0934 N/A
6:38 pm 18:38 Sunny 86 30 68 20 55 55 Calm 30 1016 10 16.0934 N/A
6:58 pm 18:58 Sunny 84 29 68 20 58 58 Calm 30 1016 10 16.0934 N/A
7:18 pm 19:18 Sunny 84 29 68 20 58 58 ENE 3 6 29.97 1015 10 16.0934 N/A
7:38 pm 19:38 Sunny 84 29 72 22 66 66 ENE 5 7 29.97 1015 10 16.0934 N/A
7:58 pm 19:58 Sunny 82 28 72 22 70 70 ENE 5 7 29.97 1015 10 16.0934 N/A
8:18 pm 20:18 Sunny 81 27 72 22 74 74 NE 3 6 29.97 1015 10 16.0934 N/A
8:38 pm 20:38 Sunny 79 26 70 21 74 74 Calm 29.97 1015 10 16.0934 N/A
8:58 pm 20:58 Clear 77 25 72 22 83 83 NE 3 6 29.97 1015 10 16.0934 N/A
9:18 pm 21:18 Clear 77 25 68 20 74 74 NE 5 7 29.97 1015 10 16.0934 N/A
9:38 pm 21:38 Clear 75 24 70 21 83 83 Calm 29.97 1015 10 16.0934 N/A
9:58 pm 21:58 Clear 73 23 68 20 83 83 NE 5 7 29.97 1015 10 16.0934 N/A
10:18 pm 22:18 Clear 72 22 68 20 88 88 NE 5 7 30 1016 10 16.0934 N/A
10:39 pm 22:39 Clear 72 22 68 20 88 88 Calm 30 1016 10 16.0934 N/A
10:58 pm 22:58 Clear 72 22 68 20 88 88 Calm 30 1016 10 16.0934 N/A
11:18 pm 23:18 Clear 73 23 68 20 83 83 Calm 30 1016 10 16.0934 N/A
11:38 pm 23:38 Clear 73 23 68 20 83 83 Calm 30 1016 10 16.0934 N/A
11:58 pm 23:58 Partly Cloudy 73 23 68 20 83 83 Calm 29.97 1015 10 16.0934 N/A

Powered by AerisWeather